When you browse on this site, cookies collect data to enhance your experience and personalize the content and advertising you see.
Visit our Privacy Policy to learn more. By continuing to use the site, you agree to this use of cookies and data.
  • In Portugal
  • List of Countries
  • For 7 days
  • Water Temperature
  • Satellite Maps
  • Weather Map
  • Weather Widgets
  • user-avatar
    Login

    Hourly Weather Pernik

    Today, 19 November, Monday

    Time Temperature Precipitation Wind Pressure Humidity
    00:00 -1°C° 0.8 mm 2 mps 687 mmHg 93%
    01:00 -1°C° 0.8 mm 2 mps 686 mmHg 93%
    02:00 +1°C° 0 mm 1 mps 686 mmHg 92%
    03:00 +1°C° 0.3 mm 1 mps 686 mmHg 92%
    04:00 +1°C° 0.3 mm 1 mps 686 mmHg 92%
    05:00 +1°C° 0.3 mm 1 mps 686 mmHg 91%
    06:00 0°C° 0.1 mm 1 mps 686 mmHg 92%
    07:00 0°C° 0.1 mm 1 mps 686 mmHg 92%
    08:00 0°C° 0 mm 1 mps 686 mmHg 90%
    09:00 +1°C° 0 mm 1 mps 687 mmHg 86%
    10:00 +3°C° 0 mm 1 mps 687 mmHg 82%
    11:00 +5°C° 0 mm 1 mps 688 mmHg 78%
    12:00 +6°C° 0 mm 1 mps 688 mmHg 76%
    13:00 +7°C° 0 mm 1 mps 688 mmHg 74%
    14:00 +8°C° 0 mm 1 mps 688 mmHg 72%
    15:00 +5°C° 0 mm 0 mps 688 mmHg 76%
    16:00 +4°C° 0 mm 0 mps 688 mmHg 80%
    17:00 +3°C° 0 mm 0 mps 688 mmHg 84%
    18:00 +2°C° 0 mm 0 mps 688 mmHg 83%
    19:00 +3°C° 0 mm 1 mps 689 mmHg 83%
    20:00 +3°C° 0 mm 1 mps 689 mmHg 83%
    21:00 +3°C° 0 mm 1 mps 689 mmHg 82%
    22:00 +3°C° 0 mm 1 mps 690 mmHg 81%
    23:00 +3°C° 0 mm 1 mps 690 mmHg 80%

    Tomorrow, 20 November, Tuesday

    Time Temperature Precipitation Wind Pressure Humidity
    00:00 +3°C° 0 mm 1 mps 690 mmHg 80%
    01:00 +3°C° 0 mm 1 mps 690 mmHg 80%
    02:00 +2°C° 0 mm 2 mps 690 mmHg 80%
    03:00 +3°C° 0 mm 2 mps 690 mmHg 81%
    04:00 +3°C° 0 mm 2 mps 690 mmHg 82%
    05:00 +3°C° 0 mm 2 mps 690 mmHg 83%
    06:00 +3°C° 0.2 mm 2 mps 691 mmHg 84%
    07:00 +4°C° 0.2 mm 2 mps 691 mmHg 86%
    08:00 +4°C° 0.2 mm 2 mps 691 mmHg 88%
    09:00 +5°C° 0.5 mm 2 mps 691 mmHg 87%
    10:00 +6°C° 0.5 mm 2 mps 691 mmHg 85%
    11:00 +7°C° 0.5 mm 2 mps 692 mmHg 84%
    12:00 +8°C° 0.2 mm 2 mps 691 mmHg 84%
    13:00 +8°C° 0.2 mm 2 mps 691 mmHg 84%
    14:00 +9°C° 0.2 mm 2 mps 691 mmHg 83%
    15:00 +8°C° 0.4 mm 2 mps 690 mmHg 86%
    16:00 +7°C° 0.4 mm 2 mps 690 mmHg 89%
    17:00 +7°C° 0.4 mm 2 mps 690 mmHg 92%
    18:00 +6°C° 0.4 mm 2 mps 690 mmHg 93%
    19:00 +6°C° 0.4 mm 2 mps 690 mmHg 93%
    20:00 +6°C° 0.4 mm 2 mps 690 mmHg 94%
    21:00 +6°C° 0.2 mm 2 mps 690 mmHg 94%
    22:00 +7°C° 0.2 mm 1 mps 690 mmHg 94%
    23:00 +7°C° 0.2 mm 1 mps 689 mmHg 94%

    Day after tomorrow, 21 November, Wednesday

    Time Temperature Precipitation Wind Pressure Humidity
    00:00 +7°C° 0.3 mm 1 mps 689 mmHg 94%
    01:00 +7°C° 0.3 mm 1 mps 689 mmHg 95%
    02:00 +7°C° 0.3 mm 1 mps 689 mmHg 95%
    03:00 +7°C° 0.4 mm 1 mps 688 mmHg 95%
    04:00 +6°C° 0.4 mm 1 mps 688 mmHg 95%
    05:00 +6°C° 0.4 mm 1 mps 688 mmHg 95%
    06:00 +6°C° 0.4 mm 1 mps 688 mmHg 95%
    07:00 +6°C° 0.4 mm 1 mps 688 mmHg 95%
    08:00 +6°C° 0.4 mm 1 mps 688 mmHg 94%
    09:00 +7°C° 0.8 mm 1 mps 688 mmHg 92%
    10:00 +7°C° 0.8 mm 1 mps 688 mmHg 91%
    11:00 +7°C° 0.8 mm 1 mps 688 mmHg 89%
    12:00 +6°C° 0.6 mm 2 mps 688 mmHg 89%
    13:00 +6°C° 0.6 mm 2 mps 688 mmHg 88%
    14:00 +6°C° 0.6 mm 2 mps 688 mmHg 88%
    15:00 +5°C° 0.4 mm 2 mps 688 mmHg 89%
    16:00 +5°C° 0.4 mm 2 mps 688 mmHg 90%
    17:00 +6°C° 0.4 mm 1 mps 688 mmHg 91%
    18:00 +5°C° 0.4 mm 1 mps 689 mmHg 91%
    19:00 +5°C° 0.4 mm 1 mps 689 mmHg 91%
    20:00 +5°C° 0.4 mm 1 mps 690 mmHg 91%
    21:00 +4°C° 0.2 mm 1 mps 690 mmHg 91%
    22:00 +4°C° 0.2 mm 1 mps 690 mmHg 91%
    23:00 +4°C° 0.2 mm 1 mps 691 mmHg 91%

    22 November, Thursday

    Time Temperature Precipitation Wind Pressure Humidity
    00:00 +4°C° 0.1 mm 1 mps 691 mmHg 91%
    01:00 +3°C° 0.1 mm 1 mps 691 mmHg 91%
    02:00 +3°C° 0.1 mm 1 mps 691 mmHg 91%
    03:00 +3°C° 0.1 mm 1 mps 691 mmHg 91%
    04:00 +3°C° 0.1 mm 1 mps 691 mmHg 91%
    05:00 +3°C° 0.1 mm 1 mps 692 mmHg 90%
    06:00 +3°C° 0.1 mm 1 mps 692 mmHg 90%
    07:00 +3°C° 0.1 mm 1 mps 692 mmHg 90%
    08:00 +3°C° 0.1 mm 1 mps 692 mmHg 89%
    09:00 +4°C° 0.2 mm 1 mps 693 mmHg 86%
    10:00 +4°C° 0.2 mm 1 mps 693 mmHg 82%
    11:00 +5°C° 0.2 mm 1 mps 694 mmHg 79%
    12:00 +6°C° 0.2 mm 1 mps 693 mmHg 78%
    13:00 +6°C° 0.2 mm 1 mps 693 mmHg 78%
    14:00 +6°C° 0.2 mm 1 mps 693 mmHg 77%
    15:00 +6°C° 0.1 mm 1 mps 693 mmHg 80%
    16:00 +5°C° 0.1 mm 1 mps 693 mmHg 83%
    17:00 +4°C° 0.1 mm 1 mps 694 mmHg 86%
    18:00 +4°C° 0.1 mm 1 mps 694 mmHg 88%
    19:00 +4°C° 0.1 mm 1 mps 694 mmHg 89%
    20:00 +3°C° 0.1 mm 1 mps 694 mmHg 90%
    21:00 +3°C° 0.1 mm 1 mps 695 mmHg 91%
    22:00 +3°C° 0.1 mm 1 mps 695 mmHg 91%
    23:00 +3°C° 0.1 mm 1 mps 695 mmHg 91%

    23 November, Friday

    Time Temperature Precipitation Wind Pressure Humidity
    00:00 +2°C° 0 mm 1 mps 695 mmHg 92%
    01:00 +2°C° 0 mm 1 mps 695 mmHg 92%
    02:00 +2°C° 0 mm 1 mps 695 mmHg 92%
    03:00 +2°C° 0 mm 1 mps 695 mmHg 92%
    04:00 +2°C° 0 mm 1 mps 696 mmHg 92%
    05:00 +2°C° 0 mm 1 mps 696 mmHg 92%
    06:00 +2°C° 0 mm 1 mps 696 mmHg 92%
    07:00 +2°C° 0 mm 1 mps 697 mmHg 92%
    08:00 +2°C° 0 mm 1 mps 697 mmHg 92%
    09:00 +3°C° 0 mm 1 mps 697 mmHg 87%
    10:00 +4°C° 0 mm 1 mps 698 mmHg 82%
    11:00 +6°C° 0 mm 1 mps 698 mmHg 77%
    12:00 +6°C° 0 mm 1 mps 698 mmHg 76%
    13:00 +7°C° 0 mm 1 mps 698 mmHg 74%
    14:00 +6°C° 0 mm 2 mps 698 mmHg 73%
    15:00 +6°C° 0 mm 1 mps 698 mmHg 77%
    16:00 +5°C° 0 mm 1 mps 698 mmHg 81%
    17:00 +4°C° 0 mm 1 mps 698 mmHg 85%
    18:00 +3°C° 0 mm 1 mps 698 mmHg 87%
    19:00 +3°C° 0 mm 1 mps 698 mmHg 89%
    20:00 +2°C° 0 mm 1 mps 698 mmHg 91%
    21:00 +2°C° 0 mm 1 mps 698 mmHg 91%
    22:00 +1°C° 0 mm 1 mps 698 mmHg 91%
    23:00 +1°C° 0 mm 1 mps 698 mmHg 90%

    24 November, Saturday

    Time Temperature Precipitation Wind Pressure Humidity
    00:00 +1°C° 0 mm 1 mps 698 mmHg 90%
    01:00 +1°C° 0 mm 1 mps 698 mmHg 89%
    02:00 0°C° 0 mm 1 mps 698 mmHg 88%
    03:00 0°C° 0 mm 1 mps 698 mmHg 88%
    04:00 0°C° 0 mm 1 mps 698 mmHg 87%
    05:00 0°C° 0 mm 1 mps 698 mmHg 86%
    06:00 0°C° 0 mm 1 mps 698 mmHg 85%
    07:00 0°C° 0 mm 1 mps 698 mmHg 84%
    08:00 +1°C° 0 mm 1 mps 698 mmHg 84%
    09:00 +3°C° 0 mm 1 mps 698 mmHg 77%
    10:00 +5°C° 0 mm 1 mps 698 mmHg 70%
    11:00 +7°C° 0 mm 1 mps 698 mmHg 64%
    12:00 +8°C° 0 mm 1 mps 698 mmHg 62%
    13:00 +9°C° 0 mm 1 mps 697 mmHg 60%
    14:00 +9°C° 0 mm 1 mps 697 mmHg 58%
    15:00 +8°C° 0 mm 1 mps 697 mmHg 63%
    16:00 +6°C° 0 mm 1 mps 696 mmHg 68%
    17:00 +5°C° 0 mm 1 mps 696 mmHg 74%
    18:00 +5°C° 0 mm 1 mps 696 mmHg 75%
    19:00 +4°C° 0 mm 1 mps 696 mmHg 77%
    20:00 +4°C° 0 mm 1 mps 696 mmHg 78%
    21:00 +4°C° 0 mm 1 mps 696 mmHg 78%
    22:00 +4°C° 0 mm 1 mps 696 mmHg 78%
    23:00 +3°C° 0 mm 1 mps 696 mmHg 78%
    Show more